Погода в Сураттани

Таиланд     9°07′45″N   99°19′54″E
темп.,
°C
ветер,
м/с
пор.,
м/с
влажн.,
%
обл.,
%
осадки,
мм/ч
давл.,
гПа
погр.,
м
14 апреля, ср
ср1401:00+25ююз4588100 6.1 1011196
04:00+25ююз4685100 0.1 1010229
07:00+25ююз2382100 0.1 1011169
10:00+29юз2266100 0.0 1013552
13:00+31вюв2257100 0.3 10111042
16:00+28ссв447299 0.9 1008181
19:00+29ссв1269100 3.5 1010200
22:00+27зсз117852 1.9 101225
15 апреля, чт
чт1501:00+26зсз118075 2.8 1010109
04:00+26зсз118299 0.0 1009134
07:00+26зюз2283100 0.1 1011158
10:00+29св117046 0.0 1012540
13:00+30всв326852 0.0 1010862
16:00+31св326392 0.1 1007679
19:00+28св337481 1.4 1008133
22:00+27ссз457818 2.8 1011217
16 апреля, пт
пт1601:00+27ссз338098 3.4 1009224
04:00+26з228389 1.6 1009131
07:00+26зюз228198 3.5 101192
10:00+29юв116894 0.0 1012635
13:00+30в2264100 0.0 1009947
16:00+30в446537 0.0 1007480
19:00+28ююз587752 2.3 1009249
22:00+27ююз578194 0.0 1011269
17 апреля, сб
сб1701:00+26ююз4587100 0.1 1010221
04:00+25юз348777 0.1 1010178
07:00+26юз2285100 0.1 1012168
10:00+29ююз2270100 0.0 1013668
13:00+32всв2257100 0.0 10101089
16:00+29ссв3471100 1.1 1009182
19:00+28ссв347338 3.5 1011150
22:00+28ссв457699 2.3 1013275
18 апреля, вс
вс1801:00+27ссв2374100 3.4 1012376
04:00+27сз1178100 0.1 1011358
07:00+26зюз1181100 0.1 1012132
10:00+29в017189 0.3 1013642
13:00+30св2265100 1.1 1011834
16:00+29всв0167100 6.3 1009181
19:00+27зюз3578100 14.6 1011193
22:00+26ююз4583100 3.0 1013226